Showing default

DAMPE, 41173

Orbit data source: Space-Track

DAMPE, 41173 is a payload satellite owned by CAS (CN) in SSO that was launched on Thu, 17 Dec 2015 UTC via a CHANG ZHENG 2D launch vehicle from the Jiuquan Satellite Launch Center, China (JSC). Payload-class satellites include a variety of spacecraft equipped with specific instruments for various scientific and technological missions. These include communications satellites like Starlink; space stations such as the ISS; scientific satellites like the Hubble; Earth observation satellites from companies like Planet Labs, Umbra, and HawkEye 360; GPS; miniature CubeSats for education and research; and military/defense satellites.

Loading next visibility...
Identifier
41173, 2015-078A
Orbit
SSO
Country
Flag of CNCN / PRC
Related business
Manufacturer
DFHZ?
Mission
Operational Civil Astronomy
Bus & Motor
CAST-2000?, AOCS
Mass
1,860 kg wet, ~1,860 kg dry
Launch date (UTC)
2015-12-17 (11 years ago)
Launch vehicle
CHANG ZHENG 2D
Launch site
Jiuquan Satellite Launch Center, China (JSC)
Object type
Payload
Rocket body
Debris
Shape & HBR
Box + 2 Pan, 2.0 m
Radar Cross Section
5.141 m², Large (>1 m²)

Expand to show TLE details & history
Last TLE update: 23 hours ago

TLE from 23 hours ago
0 DAMPE
1 41173U 15078A   26172.48268366  .00001108  00000-0  39752-4 0  9998
2 41173  97.4560 177.9713 0013678  64.0431 296.2218 15.30794927585204
Epoch: 2026-06-21T11:35Z
TLE epoch observation values (Epoch: 2026-06-21T11:35:03.868Z)
Latitude
0.00005°
Longitude
94.52286°
Altitude
472.411 km
Speed
7.632 km/s
True Right ascension
11h 51m 53s
True Declination
0° 00' 00"
Sunlit
Object was in daylight at epoch
Visualization orbit readout
Latitude
Unknown
Longitude
Unknown
Altitude
Unknown
Speed
Unknown
Apparent Right ascension
Unknown
Apparent Declination
Unknown
Sunlit
N/A
Visualization observer readout
Local Sidereal Time
21:28:40
Azimuth
Unknown
Elevation
Unknown
Doppler factor
Unknown
Orbital elements
Apogee altitude
479.76 km
Perigee altitude
461.025 km
Semi-major axis
6,848.53 km
Eccentricity
0.00137
Inclination
97.456°
RAAN
177.9713°
Arg. of periapsis
64.0431°
True anomaly
296.08109°
Mean anomaly
296.2218°
Eccentric anomaly
296.15145°
Mean motion
3.82954 °/min
Orbital period
94.01 mins
BSTAR
0.000039752
Loading maneuver chart data...
Computing Atmospheric mass density...
Loading historical data...
Loading historical data...
Loading historical data...
Loading historical data...
Loading historical data...
Loading historical data...
Loading historical data...
Other satellites on launch #78 in the year 2015 (2015-12-17 UTC)

Documentation

Showing up to 5 results
|